Regional Weather Roundup
Issued by NWS

Home | Current Version | Previous Version | Graphics & Text | Print | Product List | Glossary On
Versions: 1 2 3 4 5 6 7 8 9 10 11 12 13 14 15 16 17 18 19 20 21 22 23 24 25 26 27 28 29 30 31 32 33 34 35 36 37 38 39 40 41 42 43 44 45 46 47 48 49 50
000
ASUS43 KLOT 271604
RWRIL

ILLINOIS REGIONAL WEATHER ROUNDUP
NATIONAL WEATHER SERVICE CHICAGO/ROMEOVILLE IL
1100 AM CDT WED JUL 27 2016

NOTE: "FAIR" INDICATES FEW OR NO CLOUDS BELOW 12,000 FEET WITH NO
SIGNIFICANT WEATHER AND/OR OBSTRUCTIONS TO VISIBILITY.

* THESE STATIONS ARE NOT UNDER NWS QUALITY CONTROL. THEY ALSO MAY NOT
  REPORT WEATHER SUCH AS PRECIPITATION OR FOG.

ILZ001-002-007-009-015-016-024-271700-
NORTHWEST ILLINOIS

CITY           SKY/WX    TMP DP  RH WIND       PRES   REMARKS
MOLINE         SUNNY     83  70  64 VRB6      30.01S HX  87
STERLING*      MOSUNNY   81  71  71 CALM      30.04R HX  85
SAVANNA*       MOSUNNY   82  68  63 SW3       30.03S HX  84
$$

ILZ003-004-008-010-011-017-018-271700-
NORTH CENTRAL ILLINOIS

CITY           SKY/WX    TMP DP  RH WIND       PRES   REMARKS
ROCKFORD       MOSUNNY   82  63  52 S5        30.04R HX  83
FREEPORT*      SUNNY     81  63  55 CALM      30.06R HX  82
ROCHELLE*      SUNNY     81  70  68 CALM      30.04S HX  84
DE KALB*       PTSUNNY   81  67  63 W5        30.05R HX  83
$$

ILZ005-006-012>014-019>023-271700-
NORTHEAST ILLINOIS

CITY           SKY/WX    TMP DP  RH WIND       PRES   REMARKS
CHICAGO-OHARE  MOSUNNY   85  63  47 CALM      30.01R HX  86
CHICAGO-MIDWAY MOSUNNY   87  63  44 CALM      30.01S HX  88
AURORA         SUNNY     83  69  62 VRB3      30.03S HX  86
LANSING*       SUNNY     84  65  52 S5        30.02R HX  85
WAUKEGAN       SUNNY     84  65  52 VRB6      30.00S HX  86
DUPAGE AIRPORT PTSUNNY   84  66  54 W7        30.02R HX  86
KANKAKEE*      SUNNY     84  69  60 CALM      30.04R HX  88
WHEELING       SUNNY     85  61  44 VRB5      30.02S HX  85
MORRIS*        MOSUNNY   82  71  69 CALM      30.02R HX  87
NORTHERLY ISL    N/A     80  69  69 E2          N/A  HX  83
$$

LMZ740>746-271700-
SOUTHERN LAKE MICHIGAN

STATION/POSITION SKY/WX   TEMP    WIND        PRES    VSBY  WAVE
                          AIR SEA DIR/SP/G                  HT/PER
                          (F)     (DEG/KT/KT) (MB)    (MI)  (FT/S)
SOUTHERN BUOY              75 75  230/  6/  8 1015.3          0
WILMETTE HARBOR            78 74  200/  2/  2   N/A           0
HARRISON CRIB              79     100/  3/  3   N/A
BURNHAM HARBOR             80      90/  3/  3   N/A
CALUMET HARBOR             77      50/  5/  5 1015.7F
BURNS HARBOR               75     320/  5/  6 1016.9S
MICHIGAN CITY              74     240/  4/  5   N/A
MICHIGAN CITY 6N           75 76  250/  4/  4   N/A           1
ST. JOSEPH                 74 76  200/  4/  4 1016.1F         0
$$

ILZ025>027-034>036-040-047-049-050-058-095>099-271700-
WEST-CENTRAL ILLINOIS

CITY           SKY/WX    TMP DP  RH WIND       PRES   REMARKS
QUINCY         MOSUNNY   82  76  81 CALM      30.01R HX  89
GALESBURG*     SUNNY     81  68  64 CALM      30.04R HX  84
MACOMB*        MOSUNNY   81  73  76 SE6       30.05R HX  85
JACKSONVILLE*  CLOUDY    82  74  79 SW3       30.02R HX  87
PITTSFIELD*    PTSUNNY   82  75  79 CALM      30.03R HX  89
$$

ILZ028>032-037-038-041>044-048-051>054-059>061-271700-
CENTRAL ILLINOIS

CITY           SKY/WX    TMP DP  RH WIND       PRES   REMARKS
PONTIAC        SUNNY     83  72  70 E5        30.05R HX  88
BLOOMINGTON    MOSUNNY   81  69  67 SE8       30.05R HX  84
DECATUR        PTSUNNY   83  72  69 E6        30.03R HX  88
PEORIA         SUNNY     82  69  64 S6        30.03R HX  85
LACON*         PTSUNNY   83  68  62 SE5       30.03R HX  86
LINCOLN*       PTSUNNY   82  72  72 SE5       30.03R HX  87
SPRINGFIELD    CLOUDY    83  73  72 SE7       30.02R HX  89
TAYLORVILLE    MOSUNNY   81  73  77 MISG      30.02R HX  86
$$

ILZ033-039-045-046-055>057-062-063-271700-
EAST-CENTRAL ILLINOIS

CITY           SKY/WX    TMP DP  RH WIND       PRES   REMARKS
CHAMPAIGN      SUNNY     81  70  69 SE7       30.04R HX  84
MATTOON        MOSUNNY  N/A N/A N/A E7        30.02S
PARIS*         SUNNY     82  71  69 CALM      30.05R HX  86
$$

ILZ079-100>102-271700-
SOUTHWEST ILLINOIS

CITY           SKY/WX    TMP DP  RH WIND       PRES   REMARKS
ALTON          PTSUNNY   81  73  78 S9        30.00R HX  85
BELLEVILLE     PTSUNNY   78  77  95 S6        29.99S HX  82
CAHOKIA*       CLOUDY    80  72  76 VRB6      30.00S HX  84
SPARTA*        LGT RAIN  75  73  94 CALM      30.02S
$$

ILZ064>066-069>071-074>076-080>082-084>086-088>090-092>094-271700-
SOUTH-CENTRAL ILLINOIS

CITY           SKY/WX    TMP DP  RH WIND       PRES   REMARKS
CARBONDALE     PTSUNNY   82  75  79 W6        30.01S HX  89
CAIRO*         MOSUNNY   85  78  78 W3        30.00R HX  96
EFFINGHAM*     CLOUDY    81  78  89 E6        30.03S HX  89
MARION         MOSUNNY   86  75  70 S5        30.01S HX  95
MT. VERNON     PTSUNNY   86  73  66 MISG      30.00S HX  93
CENTRALIA*     CLOUDY    82  78  87 CALM      30.00F HX  90
SALEM*         CLOUDY    81  76  82 SE3       30.01F HX  88
METROPOLIS*    SUNNY     87  77  72 CALM      30.00S HX  99
$$

ILZ067-068-072-073-078-083-087-091-271700-
SOUTHEAST ILLINOIS

CITY           SKY/WX    TMP DP  RH WIND       PRES   REMARKS
LAWRENCEVILLE  CLOUDY    82  75  79 E6        30.01F HX  89
FLORA*         CLOUDY    84  76  77 SE3       30.01F HX  93
FAIRFIELD*     PTSUNNY   83  76  79 CALM      30.01S HX  90
HARRISBURG*    MOSUNNY   85  77  76 CALM      30.01S HX  96
ROBINSON*      CLOUDY    81  73  76 CALM      30.03S HX  85
CARMI*         MOSUNNY   86  77  75 SE3       30.00R HX  96
$$

ABBREVIATIONS USED IN REMARKS
   TC - TEMPERATURE IN CELSIUS
  WCI - WIND CHILL INDEX
   HX - HEAT INDEX
  VSB - VISIBILITY
$$





USA.gov is the U.S. government's official web portal to all federal, state and local government web resources and services.